Las Cruces, NM

8:36 AM MST on February 21, 2018 (GMT -0700)
Las Cruces International

Weather History for KLRU - June, 2013

Change the Weather History Date:

Friday, June 28, 2013

  Actual Average Record
Temperature  
Mean Temperature 88 °F -  
Max Temperature 99 °F 93 °F 104 °F (1998)
Min Temperature 76 °F 66 °F 62 °F (2004)
Cooling Degree Days 22    
Growing Degree Days 38 (Base 50)    
Moisture  
Dew Point 36 °F    
Average Humidity 16    
Maximum Humidity 25    
Minimum Humidity 10    
Precipitation  
Precipitation 0.00 in - - ()
Sea Level Pressure  
Sea Level Pressure 30.15 in    
Wind  
Wind Speed 9 mph (SE)    
Max Wind Speed 17 mph    
Max Gust Speed 25 mph    
Visibility 10 miles    
Events      
Averages and records for this station are not official NWS values.
T = Trace of Precipitation, MM = Missing Value Source: NWS Daily Summary

Daily Weather History Graph

Daily Weather History Graph

Search for Another Location

Airport or City:

Trip Planner

Search our weather history database for the weather conditions in past years. The results will help you decide how hot, cold, wet, or windy it might be!

Date:

Astronomy

Jun. 28, 2013 Rise Set
Actual Time 6:03 AM MDT 8:18 PM MDT
Civil Twilight 5:35 AM MDT 8:46 PM MDT
Nautical Twilight 5:00 AM MDT 9:21 PM MDT
Astronomical Twilight 4:22 AM MDT 9:59 PM MDT
Moon No Moon Rise 11:52 AM MDT (6/28)
Length of Visible Light 15h 11m
Length of Day
14h 15m
Waning Gibbous, 65% of the Moon is Illuminated
Jun 28
Waning Gibbous
Jun 29
Last Quarter
Jul 8
New
Jul 15
First Quarter
Jul 22
Full

Hourly Weather History & Observations

Time (MDT) Temp. Dew Point Humidity Pressure Visibility Wind Dir Wind Speed Gust Speed Precip Events Conditions
12:15 AM 86.4 °F 23.7 °F 10% 30.09 in 10.0 mi SE 6.9 mph - N/A   Clear
12:35 AM 84.6 °F 24.8 °F 11% 30.09 in 10.0 mi SE 8.1 mph - N/A   Clear
12:55 AM 83.7 °F 29.8 °F 14% 30.10 in 10.0 mi ESE 5.8 mph - N/A   Clear
1:15 AM 82.4 °F 34.2 °F 18% 30.11 in 10.0 mi SE 5.8 mph - N/A   Clear
1:35 AM 81.5 °F 34.9 °F 19% 30.11 in 10.0 mi SE 5.8 mph - N/A   Clear
1:55 AM 81.7 °F 34.7 °F 18% 30.11 in 10.0 mi SSE 6.9 mph - N/A   Clear
2:15 AM 81.3 °F 35.1 °F 19% 30.11 in 10.0 mi South 9.2 mph - N/A   Clear
2:35 AM 81.1 °F 35.6 °F 19% 30.10 in 10.0 mi South 9.2 mph - N/A   Clear
2:55 AM 80.6 °F 34.7 °F 19% 30.10 in 10.0 mi South 9.2 mph - N/A   Clear
3:15 AM 79.9 °F 34.9 °F 20% 30.10 in 10.0 mi South 9.2 mph - N/A   Clear
3:35 AM 80.1 °F 35.2 °F 20% 30.10 in 10.0 mi South 9.2 mph - N/A   Clear
3:55 AM 79.7 °F 35.1 °F 20% 30.11 in 10.0 mi SSE 6.9 mph - N/A   Clear
4:15 AM 79.0 °F 35.2 °F 21% 30.10 in 10.0 mi SSE 9.2 mph - N/A   Clear
4:35 AM 77.0 °F 35.1 °F 22% 30.11 in 10.0 mi SE 6.9 mph - N/A   Clear
4:55 AM 77.4 °F 35.2 °F 22% 30.11 in 10.0 mi SE 8.1 mph - N/A   Clear
5:15 AM 77.9 °F 36.1 °F 22% 30.11 in 10.0 mi SSE 8.1 mph - N/A   Clear
5:35 AM 77.4 °F 36.1 °F 23% 30.12 in 10.0 mi SE 6.9 mph - N/A   Clear
5:55 AM 76.5 °F 36.5 °F 24% 30.14 in 10.0 mi ESE 8.1 mph - N/A   Clear
6:55 AM 79.2 °F 39.9 °F 25% 30.18 in 10.0 mi SE 5.8 mph - N/A   Clear
7:15 AM 80.2 °F 40.6 °F 24% 30.20 in 10.0 mi East 5.8 mph - N/A   Clear
7:35 AM 81.9 °F 41.4 °F 24% 30.20 in 10.0 mi ESE 4.6 mph - N/A   Scattered Clouds
7:55 AM 83.3 °F 41.0 °F 22% 30.20 in 10.0 mi ESE 9.2 mph - N/A   Clear
8:15 AM 84.0 °F 40.1 °F 21% 30.21 in 10.0 mi SE 11.5 mph - N/A   Clear
8:35 AM 84.9 °F 38.1 °F 19% 30.22 in 10.0 mi ESE 11.5 mph 16.1 mph N/A   Clear
8:55 AM 85.8 °F 37.2 °F 18% 30.23 in 10.0 mi ESE 10.4 mph - N/A   Clear
9:15 AM 86.0 °F 39.7 °F 19% 30.23 in 10.0 mi East 8.1 mph - N/A   Clear
9:35 AM 88.5 °F 37.9 °F 17% 30.23 in 10.0 mi East 9.2 mph - N/A   Clear
9:55 AM 88.9 °F 37.2 °F 16% 30.23 in 10.0 mi East 12.7 mph 17.3 mph N/A   Clear
10:15 AM 88.5 °F 35.8 °F 15% 30.25 in 10.0 mi East 15.0 mph 20.7 mph N/A   Clear
10:35 AM 91.2 °F 34.5 °F 13% 30.26 in 10.0 mi ESE 17.3 mph 24.2 mph N/A   Clear
10:55 AM 90.7 °F 35.1 °F 14% 30.25 in 10.0 mi ESE 10.4 mph - N/A   Clear
11:15 AM 93.7 °F 34.0 °F 12% 30.25 in 10.0 mi East 10.4 mph - N/A   Clear
11:35 AM 92.5 °F 34.0 °F 13% 30.25 in 10.0 mi East 10.4 mph - N/A   Clear
11:55 AM 92.3 °F 34.0 °F 13% 30.24 in 10.0 mi East 12.7 mph - N/A   Clear
12:15 PM 93.0 °F 34.3 °F 13% 30.23 in 10.0 mi SE 10.4 mph - N/A   Clear
12:35 PM 94.8 °F 34.5 °F 12% 30.23 in 10.0 mi SE 13.8 mph - N/A   Clear
12:55 PM 95.4 °F 33.3 °F 11% 30.22 in 10.0 mi SE 10.4 mph 19.6 mph N/A   Clear
1:15 PM 96.3 °F 33.8 °F 11% 30.21 in 10.0 mi SE 13.8 mph 19.6 mph N/A   Clear
1:35 PM 97.5 °F 34.5 °F 11% 30.20 in 10.0 mi ESE 13.8 mph 18.4 mph N/A   Clear
1:55 PM 97.2 °F 34.7 °F 11% 30.19 in 10.0 mi East 13.8 mph 19.6 mph N/A   Clear
2:15 PM 99.7 °F 35.6 °F 11% 30.18 in 10.0 mi ESE 15.0 mph 19.6 mph N/A   Clear
2:35 PM 98.8 °F 35.2 °F 11% 30.18 in 10.0 mi SE 12.7 mph 20.7 mph N/A   Clear
2:55 PM 97.0 °F 34.9 °F 11% 30.16 in 10.0 mi East 9.2 mph 17.3 mph N/A   Clear
3:15 PM 97.7 °F 35.1 °F 11% 30.16 in 10.0 mi ESE 12.7 mph - N/A   Clear
3:35 PM 97.0 °F 35.1 °F 11% 30.15 in 10.0 mi South 6.9 mph 16.1 mph N/A   Clear
3:55 PM 98.4 °F 35.6 °F 11% 30.14 in 10.0 mi SSE 13.8 mph 18.4 mph N/A   Clear
4:15 PM 98.4 °F 35.8 °F 11% 30.14 in 10.0 mi SE 15.0 mph 20.7 mph N/A   Clear
4:35 PM 99.0 °F 37.4 °F 12% 30.13 in 10.0 mi SE 11.5 mph 20.7 mph N/A   Clear
4:55 PM 98.6 °F 37.0 °F 12% 30.12 in 10.0 mi ESE 13.8 mph 18.4 mph N/A   Clear
5:15 PM 98.2 °F 37.2 °F 12% 30.12 in 10.0 mi SE 12.7 mph 21.9 mph N/A   Clear
5:35 PM 99.0 °F 37.4 °F 12% 30.11 in 10.0 mi SE 15.0 mph 20.7 mph N/A   Clear
5:55 PM 98.6 °F 37.8 °F 12% 30.10 in 10.0 mi ESE 11.5 mph 21.9 mph N/A   Clear
6:15 PM 96.4 °F 37.8 °F 13% 30.10 in 10.0 mi ESE 12.7 mph 25.3 mph N/A   Clear
6:35 PM 95.5 °F 38.3 °F 14% 30.10 in 10.0 mi ESE 10.4 mph - N/A   Clear
6:55 PM 96.1 °F 37.8 °F 13% 30.10 in 10.0 mi East 9.2 mph - N/A   Clear
7:15 PM 95.9 °F 38.5 °F 14% 30.10 in 10.0 mi ESE 13.8 mph - N/A   Clear
7:35 PM 94.6 °F 39.2 °F 15% 30.11 in 10.0 mi ESE 12.7 mph - N/A   Clear
7:55 PM 94.1 °F 38.7 °F 14% 30.11 in 10.0 mi ESE 9.2 mph - N/A   Clear
8:15 PM 93.0 °F 38.5 °F 15% 30.12 in 10.0 mi ESE 9.2 mph - N/A   Clear
8:35 PM 91.8 °F 39.4 °F 16% 30.12 in 10.0 mi ESE 8.1 mph - N/A   Mostly Cloudy
8:55 PM 90.3 °F 41.0 °F 18% 30.12 in 10.0 mi ESE 4.6 mph - N/A   Scattered Clouds
9:15 PM 88.5 °F 40.5 °F 18% 30.12 in 10.0 mi ESE 3.5 mph - N/A   Clear
9:35 PM 85.8 °F 40.1 °F 20% 30.13 in 10.0 mi Calm Calm - N/A   Clear
9:55 PM 84.4 °F 39.7 °F 21% 30.14 in 10.0 mi Calm Calm - N/A   Clear
10:15 PM 82.9 °F 38.5 °F 21% 30.14 in 10.0 mi Calm Calm - N/A   Clear
10:35 PM 84.0 °F 39.4 °F 21% 30.14 in 10.0 mi SE 4.6 mph - N/A   Clear
10:55 PM 86.0 °F 39.2 °F 19% 30.14 in 10.0 mi Calm Calm - N/A   Clear
11:15 PM 83.1 °F 38.7 °F 21% 30.14 in 10.0 mi Calm Calm - N/A   Clear
11:35 PM 82.2 °F 38.7 °F 21% 30.15 in 10.0 mi Calm Calm - N/A   Clear
11:55 PM 78.8 °F 37.4 °F 23% 30.15 in 10.0 mi Calm Calm - N/A   Clear